UTA106 UWUU-USSS

Flight info

Callsign UTA106
Flight time 1h 9m
Altitude 15000
Route N0240F150 IPROK P85 TUNLU P135 LOMBI
Aircraft AN24/M-I/L

Departure

Time 2026-04-23 10:24
Airport Ufa International Airport (UWUU)

Arrival

Time 2026-04-23 11:33
Airport Koltsovo Airport (USSS)
Time Latitude Longitude Altitude Speed Heading
2026-04-23 09:52 54.56112 55.88678 390 ft 0 kts 59°
2026-04-23 10:17 54.56114 55.88683 390 ft 2 kts 59°
2026-04-23 10:17 54.56151 55.88638 388 ft 11 kts 272°
2026-04-23 10:18 54.56142 55.88520 385 ft 9 kts 309°
2026-04-23 10:18 54.56233 55.88421 384 ft 17 kts 330°
2026-04-23 10:18 54.56332 55.88325 382 ft 14 kts 331°
2026-04-23 10:18 54.56414 55.88239 381 ft 12 kts 310°
2026-04-23 10:19 54.56387 55.88067 380 ft 19 kts 240°
2026-04-23 10:19 54.56328 55.87889 381 ft 20 kts 239°
2026-04-23 10:19 54.56265 55.87695 386 ft 14 kts 240°
2026-04-23 10:19 54.56214 55.87542 392 ft 16 kts 241°
2026-04-23 10:20 54.56162 55.87384 396 ft 20 kts 239°
2026-04-23 10:20 54.56098 55.87188 402 ft 20 kts 241°
2026-04-23 10:20 54.56039 55.87006 408 ft 20 kts 240°
2026-04-23 10:20 54.55975 55.86813 411 ft 22 kts 240°
2026-04-23 10:21 54.55899 55.86587 413 ft 22 kts 241°
2026-04-23 10:21 54.55824 55.86395 414 ft 16 kts 198°
2026-04-23 10:21 54.55747 55.86447 417 ft 6 kts 151°
2026-04-23 10:21 54.55744 55.86451 417 ft 0 kts 151°
2026-04-23 10:22 54.55743 55.86451 417 ft 0 kts 151°
2026-04-23 10:22 54.55740 55.86454 417 ft 9 kts 152°
2026-04-23 10:23 54.55452 55.86735 425 ft 81 kts 151°
2026-04-23 10:23 54.54818 55.87352 443 ft 123 kts 152°
2026-04-23 10:23 54.54003 55.88145 668 ft 140 kts 156°
2026-04-23 10:23 54.53102 55.88926 1010 ft 151 kts 158°
2026-04-23 10:24 54.52129 55.89770 1351 ft 163 kts 158°
2026-04-23 10:24 54.51111 55.90629 1800 ft 165 kts 160°
2026-04-23 10:24 54.50044 55.91311 2233 ft 163 kts 175°
2026-04-23 10:24 54.48919 55.91139 2541 ft 164 kts 201°
2026-04-23 10:25 54.47976 55.90104 2856 ft 163 kts 225°
2026-04-23 10:25 54.47410 55.88440 3165 ft 167 kts 250°
2026-04-23 10:25 54.47369 55.86415 3458 ft 175 kts 276°
2026-04-23 10:25 54.47894 55.84540 3812 ft 181 kts 302°
2026-04-23 10:26 54.48933 55.83218 4051 ft 195 kts 332°
2026-04-23 10:26 54.50307 55.82870 4340 ft 202 kts 359°
2026-04-23 10:26 54.51654 55.83065 4761 ft 195 kts
2026-04-23 10:26 54.53010 55.83335 5008 ft 199 kts
2026-04-23 10:27 54.54408 55.83671 5241 ft 203 kts
2026-04-23 10:27 54.55788 55.84094 5570 ft 201 kts
2026-04-23 10:27 54.57156 55.84499 5858 ft 201 kts
2026-04-23 10:27 54.58538 55.84848 6236 ft 200 kts
2026-04-23 10:28 54.59888 55.85155 6641 ft 196 kts
2026-04-23 10:28 54.61192 55.85843 6953 ft 201 kts 26°
2026-04-23 10:28 54.62280 55.87356 7227 ft 200 kts 52°
2026-04-23 10:28 54.63099 55.89270 7500 ft 201 kts 57°
2026-04-23 10:29 54.63907 55.91269 7686 ft 205 kts 58°
2026-04-23 10:29 54.64740 55.93272 7928 ft 207 kts 52°
2026-04-23 10:29 54.65719 55.95025 8218 ft 204 kts 41°
2026-04-23 10:29 54.66882 55.96439 8454 ft 201 kts 34°
2026-04-23 10:30 54.68015 55.97804 8733 ft 198 kts 30°
2026-04-23 10:30 54.69186 55.99063 8896 ft 198 kts 33°
2026-04-23 10:30 54.70365 56.00330 8940 ft 204 kts 30°
2026-04-23 10:30 54.71601 56.01578 9104 ft 203 kts 28°
2026-04-23 10:31 54.72812 56.02733 9353 ft 199 kts 26°
2026-04-23 10:31 54.73990 56.03946 9613 ft 198 kts 29°
2026-04-23 10:31 54.75207 56.05148 9765 ft 204 kts 28°
2026-04-23 10:31 54.76432 56.06376 10055 ft 201 kts 33°
2026-04-23 10:32 54.77560 56.07763 10328 ft 200 kts 36°
2026-04-23 10:32 54.78696 56.09209 10496 ft 205 kts 36°
2026-04-23 10:32 54.79833 56.10653 10667 ft 205 kts 36°
2026-04-23 10:32 54.80997 56.12103 10875 ft 205 kts 35°
2026-04-23 10:33 54.82142 56.13502 11140 ft 202 kts 34°
2026-04-23 10:33 54.83287 56.14893 11371 ft 203 kts 35°
2026-04-23 10:33 54.84429 56.16325 11576 ft 204 kts 36°
2026-04-23 10:33 54.85574 56.17783 11802 ft 204 kts 37°
2026-04-23 10:34 54.86709 56.19266 12035 ft 204 kts 37°
2026-04-23 10:34 54.87835 56.20734 12278 ft 203 kts 36°
2026-04-23 10:34 54.88968 56.22203 12511 ft 203 kts 36°
2026-04-23 10:34 54.90099 56.23672 12723 ft 204 kts 36°
2026-04-23 10:35 54.91229 56.25142 12926 ft 205 kts 36°
2026-04-23 10:35 54.92364 56.26619 13109 ft 207 kts 36°
2026-04-23 10:35 54.93519 56.28126 13295 ft 208 kts 36°
2026-04-23 10:35 54.94677 56.29639 13474 ft 209 kts 36°
2026-04-23 10:36 54.95842 56.31158 13658 ft 210 kts 36°
2026-04-23 10:36 54.97017 56.32690 13843 ft 211 kts 36°
2026-04-23 10:36 54.98196 56.34231 14030 ft 212 kts 36°
2026-04-23 10:36 54.99373 56.35771 14214 ft 212 kts 36°
2026-04-23 10:37 55.00547 56.37310 14393 ft 213 kts 36°
2026-04-23 10:37 55.01730 56.38860 14570 ft 213 kts 36°
2026-04-23 10:37 55.02931 56.40438 14611 ft 222 kts 36°
2026-04-23 10:37 55.04185 56.42084 14604 ft 231 kts 36°
2026-04-23 10:38 55.05487 56.43793 14617 ft 236 kts 36°
2026-04-23 10:38 55.06803 56.45522 14610 ft 241 kts 36°
2026-04-23 10:38 55.08140 56.47278 14617 ft 243 kts 36°
2026-04-23 10:38 55.09510 56.49079 14625 ft 246 kts 36°
2026-04-23 10:39 55.10932 56.50715 14623 ft 247 kts 28°
2026-04-23 10:39 55.12446 56.52105 14624 ft 249 kts 25°
2026-04-23 10:39 55.13994 56.53483 14590 ft 251 kts 25°
2026-04-23 10:39 55.15541 56.54864 14613 ft 251 kts 25°
2026-04-23 10:40 55.17092 56.56252 14614 ft 252 kts 25°
2026-04-23 10:40 55.18657 56.57651 14622 ft 252 kts 26°
2026-04-23 10:40 55.20224 56.59054 14611 ft 253 kts 26°
2026-04-23 10:40 55.21795 56.60463 14602 ft 254 kts 25°
2026-04-23 10:41 55.23356 56.61862 14624 ft 253 kts 26°
2026-04-23 10:41 55.24910 56.63259 14613 ft 254 kts 25°
2026-04-23 10:41 55.26478 56.64667 14619 ft 254 kts 25°
2026-04-23 10:41 55.28045 56.66077 14605 ft 255 kts 26°
2026-04-23 10:42 55.29631 56.67507 14604 ft 254 kts 26°
2026-04-23 10:42 55.31189 56.68909 14627 ft 254 kts 26°
2026-04-23 10:42 55.32769 56.70336 14611 ft 255 kts 26°
2026-04-23 10:42 55.34344 56.71756 14609 ft 254 kts 26°
2026-04-23 10:43 55.35894 56.73157 14626 ft 254 kts 26°
2026-04-23 10:43 55.37463 56.74579 14605 ft 255 kts 26°
2026-04-23 10:43 55.39050 56.76014 14609 ft 254 kts 26°
2026-04-23 10:43 55.40609 56.77428 14621 ft 254 kts 26°
2026-04-23 10:44 55.42181 56.78855 14603 ft 255 kts 26°
2026-04-23 10:44 55.43751 56.80280 14605 ft 255 kts 26°
2026-04-23 10:44 55.45318 56.81704 14610 ft 255 kts 27°
2026-04-23 10:44 55.46891 56.83136 14594 ft 255 kts 26°
2026-04-23 10:45 55.48467 56.84569 14613 ft 255 kts 27°
2026-04-23 10:45 55.50030 56.85994 14600 ft 255 kts 27°
2026-04-23 10:45 55.51611 56.87436 14606 ft 255 kts 26°
2026-04-23 10:45 55.53180 56.88869 14619 ft 255 kts 27°
2026-04-23 10:46 55.54746 56.90301 14602 ft 255 kts 27°
2026-04-23 10:46 55.56313 56.91733 14600 ft 255 kts 27°
2026-04-23 10:46 55.57888 56.93175 14575 ft 256 kts 27°
2026-04-23 10:46 55.59470 56.94626 14599 ft 255 kts 27°
2026-04-23 10:47 55.61047 56.96070 14593 ft 255 kts 27°
2026-04-23 10:47 55.62624 56.97518 14577 ft 256 kts 27°
2026-04-23 10:47 55.64196 56.98964 14595 ft 255 kts 27°
2026-04-23 10:47 55.65767 57.00409 14583 ft 256 kts 27°
2026-04-23 10:48 55.67327 57.01844 14597 ft 255 kts 27°
2026-04-23 10:48 55.68907 57.03301 14602 ft 255 kts 27°
2026-04-23 10:48 55.70485 57.04758 14586 ft 256 kts 27°
2026-04-23 10:48 55.72048 57.06198 14610 ft 255 kts 27°
2026-04-23 10:49 55.73627 57.07658 14597 ft 256 kts 27°
2026-04-23 10:49 55.75214 57.09127 14581 ft 257 kts 27°
2026-04-23 10:49 55.76785 57.10581 14600 ft 256 kts 27°
2026-04-23 10:49 55.78366 57.12046 14591 ft 256 kts 27°
2026-04-23 10:50 55.79926 57.13495 14609 ft 255 kts 27°
2026-04-23 10:50 55.81500 57.14954 14609 ft 255 kts 27°
2026-04-23 10:50 55.83082 57.16425 14609 ft 256 kts 27°
2026-04-23 10:50 55.84641 57.17874 14618 ft 255 kts 27°
2026-04-23 10:51 55.86219 57.19342 14590 ft 257 kts 27°
2026-04-23 10:51 55.87792 57.20809 14608 ft 256 kts 27°
2026-04-23 10:51 55.89378 57.22287 14607 ft 256 kts 27°
2026-04-23 10:51 55.90940 57.23744 14617 ft 256 kts 27°
2026-04-23 10:52 55.92509 57.25210 14632 ft 256 kts 27°
2026-04-23 10:52 55.94089 57.26690 14607 ft 257 kts 27°
2026-04-23 10:52 55.95639 57.28247 14625 ft 257 kts 34°
2026-04-23 10:52 55.96942 57.30404 14651 ft 255 kts 52°
2026-04-23 10:53 55.97903 57.33067 14562 ft 257 kts 64°
2026-04-23 10:53 55.98734 57.35899 14546 ft 257 kts 65°
2026-04-23 10:53 55.99528 57.38683 14693 ft 250 kts 67°
2026-04-23 10:53 56.00287 57.41511 14586 ft 256 kts 68°
2026-04-23 10:54 56.01046 57.44395 14491 ft 259 kts 67°
2026-04-23 10:54 56.01795 57.47238 14679 ft 250 kts 67°
2026-04-23 10:54 56.02540 57.50070 14643 ft 253 kts 67°
2026-04-23 10:54 56.03300 57.52969 14480 ft 260 kts 68°
2026-04-23 10:55 56.04053 57.55837 14645 ft 253 kts 68°
2026-04-23 10:55 56.04796 57.58666 14676 ft 252 kts 68°
2026-04-23 10:55 56.05546 57.61538 14505 ft 260 kts 68°
2026-04-23 10:55 56.06305 57.64444 14588 ft 255 kts 68°
2026-04-23 10:56 56.07051 57.67295 14688 ft 251 kts 69°
2026-04-23 10:56 56.07793 57.70142 14601 ft 256 kts 69°
2026-04-23 10:56 56.08535 57.73004 14560 ft 258 kts 69°
2026-04-23 10:56 56.09290 57.75905 14631 ft 254 kts 69°
2026-04-23 10:57 56.10038 57.78763 14647 ft 254 kts 69°
2026-04-23 10:57 56.10789 57.81673 14526 ft 258 kts 69°
2026-04-23 10:57 56.11546 57.84590 14588 ft 255 kts 68°
2026-04-23 10:57 56.12283 57.87447 14650 ft 252 kts 69°
2026-04-23 10:58 56.13025 57.90321 14572 ft 256 kts 69°
2026-04-23 10:58 56.13780 57.93245 14556 ft 256 kts 69°
2026-04-23 10:58 56.14523 57.96111 14650 ft 253 kts 69°
2026-04-23 10:58 56.15252 57.98954 14599 ft 254 kts 69°
2026-04-23 10:59 56.15998 58.01859 14572 ft 256 kts 69°
2026-04-23 10:59 56.16735 58.04728 14649 ft 252 kts 69°
2026-04-23 10:59 56.17473 58.07592 14610 ft 255 kts 70°
2026-04-23 10:59 56.18209 58.10478 14530 ft 258 kts 69°
2026-04-23 11:00 56.18958 58.13401 14622 ft 253 kts 69°
2026-04-23 11:00 56.19690 58.16260 14656 ft 253 kts 69°
2026-04-23 11:00 56.20432 58.19171 14541 ft 258 kts 69°
2026-04-23 11:00 56.21167 58.22073 14591 ft 256 kts 69°
2026-04-23 11:01 56.21906 58.24963 14627 ft 254 kts 69°
2026-04-23 11:01 56.22638 58.27840 14626 ft 255 kts 69°
2026-04-23 11:01 56.23367 58.30720 14619 ft 255 kts 69°
2026-04-23 11:01 56.24105 58.33634 14612 ft 256 kts 69°
2026-04-23 11:02 56.24841 58.36543 14627 ft 255 kts 69°
2026-04-23 11:02 56.25576 58.39447 14626 ft 255 kts 69°
2026-04-23 11:02 56.26300 58.42313 14647 ft 256 kts 69°
2026-04-23 11:02 56.27036 58.45233 14606 ft 257 kts 69°
2026-04-23 11:03 56.27776 58.48168 14598 ft 257 kts 69°
2026-04-23 11:03 56.28510 58.51078 14623 ft 255 kts 70°
2026-04-23 11:03 56.29240 58.53978 14619 ft 255 kts 69°
2026-04-23 11:03 56.29969 58.56890 14636 ft 255 kts 69°
2026-04-23 11:04 56.30692 58.59776 14599 ft 257 kts 69°
2026-04-23 11:04 56.31419 58.62690 14586 ft 257 kts 69°
2026-04-23 11:04 56.32149 58.65613 14619 ft 256 kts 70°
2026-04-23 11:04 56.32889 58.68572 14622 ft 256 kts 70°
2026-04-23 11:05 56.33615 58.71484 14595 ft 257 kts 70°
2026-04-23 11:05 56.34358 58.74465 14604 ft 257 kts 70°
2026-04-23 11:05 56.35084 58.77381 14606 ft 257 kts 70°
2026-04-23 11:05 56.35812 58.80309 14644 ft 256 kts 70°
2026-04-23 11:06 56.37274 58.86209 14610 ft 257 kts 70°
2026-04-23 11:06 56.37995 58.89134 14616 ft 257 kts 70°
2026-04-23 11:06 56.38720 58.92057 14624 ft 257 kts 70°
2026-04-23 11:07 56.39450 58.95023 14609 ft 258 kts 70°
2026-04-23 11:07 56.40174 58.97962 14637 ft 257 kts 70°
2026-04-23 11:07 56.40903 59.00921 14626 ft 257 kts 70°
2026-04-23 11:07 56.41627 59.03872 14635 ft 257 kts 69°
2026-04-23 11:08 56.42350 59.06813 14603 ft 258 kts 70°
2026-04-23 11:08 56.43073 59.09783 14621 ft 258 kts 70°
2026-04-23 11:08 56.43790 59.12718 14631 ft 258 kts 70°
2026-04-23 11:08 56.44519 59.15696 14608 ft 259 kts 69°
2026-04-23 11:09 56.45245 59.18671 14622 ft 258 kts 70°
2026-04-23 11:09 56.45963 59.21612 14634 ft 258 kts 70°
2026-04-23 11:09 56.46688 59.24585 14612 ft 258 kts 70°
2026-04-23 11:09 56.47403 59.27544 14629 ft 257 kts 70°
2026-04-23 11:10 56.48117 59.30483 14633 ft 257 kts 70°
2026-04-23 11:10 56.48836 59.33443 14619 ft 258 kts 70°
2026-04-23 11:10 56.49553 59.36411 14626 ft 258 kts 70°
2026-04-23 11:10 56.50267 59.39370 14611 ft 258 kts 70°
2026-04-23 11:11 56.50987 59.42353 14617 ft 258 kts 70°
2026-04-23 11:11 56.51707 59.45333 14627 ft 258 kts 70°
2026-04-23 11:11 56.52422 59.48314 14602 ft 259 kts 70°
2026-04-23 11:11 56.53134 59.51282 14612 ft 259 kts 70°
2026-04-23 11:12 56.53854 59.54194 14435 ft 251 kts 69°
2026-04-23 11:12 56.54574 59.57023 14091 ft 246 kts 69°
2026-04-23 11:12 56.55283 59.59811 13730 ft 243 kts 69°
2026-04-23 11:12 56.55984 59.62606 13357 ft 241 kts 68°
2026-04-23 11:13 56.56668 59.65311 13017 ft 238 kts 70°
2026-04-23 11:13 56.57347 59.68064 12619 ft 237 kts 70°
2026-04-23 11:13 56.58026 59.70826 12227 ft 236 kts 68°
2026-04-23 11:13 56.58755 59.73480 11875 ft 234 kts 66°
2026-04-23 11:14 56.59513 59.76076 11506 ft 233 kts 65°
2026-04-23 11:14 56.60270 59.78651 11116 ft 233 kts 65°
2026-04-23 11:14 56.60973 59.81253 10764 ft 230 kts 67°
2026-04-23 11:14 56.61642 59.83891 10415 ft 228 kts 69°
2026-04-23 11:15 56.62294 59.86475 10044 ft 227 kts 67°
2026-04-23 11:15 56.62986 59.89038 9669 ft 227 kts 66°
2026-04-23 11:15 56.63672 59.91586 9308 ft 226 kts 66°
2026-04-23 11:15 56.64336 59.94168 8957 ft 223 kts 70°
2026-04-23 11:16 56.64738 59.96830 8646 ft 217 kts 83°
2026-04-23 11:16 56.65027 59.99484 8286 ft 218 kts 82°
2026-04-23 11:16 56.65350 60.02211 7867 ft 220 kts 81°
2026-04-23 11:16 56.65683 60.04900 7438 ft 222 kts 80°
2026-04-23 11:17 56.66014 60.07677 6963 ft 225 kts 81°
2026-04-23 11:17 56.66332 60.10444 6500 ft 227 kts 81°
2026-04-23 11:17 56.66658 60.13223 6073 ft 227 kts 81°
2026-04-23 11:17 56.66975 60.16038 5594 ft 228 kts 82°
2026-04-23 11:18 56.67279 60.18845 5159 ft 227 kts 82°
2026-04-23 11:18 56.67565 60.21643 4756 ft 224 kts 83°
2026-04-23 11:18 56.67811 60.24395 4380 ft 220 kts 84°
2026-04-23 11:18 56.68060 60.27077 4210 ft 208 kts 82°
2026-04-23 11:19 56.68349 60.29576 4067 ft 197 kts 79°
2026-04-23 11:19 56.68706 60.31911 3907 ft 189 kts 78°
2026-04-23 11:19 56.69028 60.34209 3627 ft 192 kts 79°
2026-04-23 11:19 56.69322 60.36551 3621 ft 185 kts 82°
2026-04-23 11:20 56.69582 60.38781 3646 ft 179 kts 80°
2026-04-23 11:20 56.69861 60.40996 3468 ft 185 kts 80°
2026-04-23 11:20 56.70158 60.43293 3393 ft 183 kts 80°
2026-04-23 11:20 56.70432 60.45525 3388 ft 178 kts 82°
2026-04-23 11:21 56.70666 60.47723 3316 ft 178 kts 81°
2026-04-23 11:21 56.70932 60.49828 3341 ft 167 kts 81°
2026-04-23 11:21 56.71207 60.51948 3072 ft 175 kts 79°
2026-04-23 11:21 56.71507 60.54046 3047 ft 164 kts 78°
2026-04-23 11:22 56.71803 60.55960 3056 ft 152 kts 78°
2026-04-23 11:22 56.72086 60.57754 2999 ft 144 kts 77°
2026-04-23 11:22 56.72384 60.59482 2780 ft 146 kts 77°
2026-04-23 11:22 56.72669 60.61248 2615 ft 141 kts 77°
2026-04-23 11:23 56.72964 60.62962 2375 ft 142 kts 76°
2026-04-23 11:23 56.73282 60.64628 2193 ft 139 kts 73°
2026-04-23 11:23 56.73655 60.66225 2028 ft 139 kts 68°
2026-04-23 11:23 56.74075 60.67769 1944 ft 131 kts 68°
2026-04-23 11:24 56.74433 60.69361 1688 ft 138 kts 76°
2026-04-23 11:24 56.74591 60.71027 1526 ft 130 kts 96°
2026-04-23 11:24 56.74512 60.72664 1376 ft 126 kts 102°
2026-04-23 11:24 56.74413 60.74286 1210 ft 131 kts 99°
2026-04-23 11:25 56.74327 60.75945 1062 ft 134 kts 99°
2026-04-23 11:25 56.74246 60.77585 889 ft 127 kts 98°
2026-04-23 11:25 56.74188 60.79179 868 ft 129 kts 96°
2026-04-23 11:25 56.74129 60.80832 1197 ft 129 kts 100°
2026-04-23 11:26 56.74048 60.82518 1437 ft 143 kts 100°
2026-04-23 11:26 56.73957 60.84387 1668 ft 157 kts 100°
2026-04-23 11:26 56.73851 60.86501 1821 ft 177 kts 101°
2026-04-23 11:26 56.73612 60.88705 2146 ft 180 kts 116°
2026-04-23 11:27 56.72890 60.90540 2370 ft 181 kts 145°
2026-04-23 11:27 56.71752 60.91403 2698 ft 171 kts 175°
2026-04-23 11:27 56.70633 60.91139 2741 ft 168 kts 202°
2026-04-23 11:27 56.69696 60.89902 2742 ft 168 kts 228°
2026-04-23 11:28 56.69255 60.87925 2721 ft 175 kts 260°
2026-04-23 11:28 56.69366 60.85730 2768 ft 176 kts 275°
2026-04-23 11:28 56.69523 60.83575 2856 ft 168 kts 269°
2026-04-23 11:28 56.69511 60.81455 2808 ft 169 kts 262°
2026-04-23 11:29 56.69461 60.79380 3007 ft 155 kts 263°
2026-04-23 11:29 56.69417 60.77577 3124 ft 134 kts 262°
2026-04-23 11:29 56.69358 60.75886 2893 ft 137 kts 259°
2026-04-23 11:29 56.69259 60.74224 2785 ft 126 kts 257°
2026-04-23 11:30 56.69142 60.72694 2696 ft 120 kts 255°
2026-04-23 11:30 56.68998 60.71211 2516 ft 123 kts 259°
2026-04-23 11:30 56.69148 60.69597 2282 ft 136 kts 287°
2026-04-23 11:30 56.69744 60.68258 2085 ft 140 kts 320°
2026-04-23 11:31 56.70684 60.67715 1815 ft 147 kts 354°
2026-04-23 11:31 56.71646 60.68069 1727 ft 140 kts 25°
2026-04-23 11:31 56.72424 60.69170 1561 ft 141 kts 50°
2026-04-23 11:31 56.72997 60.70544 1411 ft 137 kts 56°
2026-04-23 11:32 56.73521 60.71949 1334 ft 131 kts 64°
2026-04-23 11:32 56.73957 60.73417 1117 ft 134 kts 65°
2026-04-23 11:32 56.74306 60.74937 979 ft 129 kts 82°
2026-04-23 11:32 56.74302 60.76474 932 ft 120 kts 101°
2026-04-23 11:33 56.74229 60.78009 797 ft 116 kts 98°
2026-04-23 11:33 56.74175 60.79289 778 ft 82 kts 96°
2026-04-23 11:33 56.74145 60.80054 778 ft 37 kts 95°
2026-04-23 11:33 56.74131 60.80405 778 ft 22 kts 95°
2026-04-23 11:34 56.74185 60.80566 778 ft 15 kts
2026-04-23 11:34 56.74283 60.80592 778 ft 12 kts
2026-04-23 11:34 56.74365 60.80616 778 ft 11 kts
2026-04-23 11:34 56.74439 60.80632 778 ft 10 kts
2026-04-23 11:35 56.74508 60.80647 778 ft 9 kts
2026-04-23 11:35 56.74575 60.80645 778 ft 9 kts
2026-04-23 11:35 56.74673 60.80648 778 ft 14 kts
2026-04-23 11:35 56.74735 60.80571 778 ft 10 kts 291°
2026-04-23 11:36 56.74789 60.80538 778 ft 9 kts
2026-04-23 11:36 56.74798 60.80538 778 ft 0 kts